[[{"header":{"parameterUnit":"m.s-1","parameterCategory":1,"la1":30.2991,"la2":30.254,"lo1":-89.0895,"lo2":-89.0444,"dy":0.0017,"dx":0.0017,"nx":28,"ny":28,"refTime":"2023-06-19T21:00:00:Z","depth":0,"parameterNumber":2,"parameterNumberName":"U-component_of_WINDS"},"data":[0,0,0,0,0,0,0,0,0,0,0,0,0,0,0,0,0,0,0,0,0,0,0,0,0,0,0,0,0,0,0,0,0,0,0,0,0,0,0,0,0,0,0,0,0,0,0,0,0,0,0,0,0,0,0,0,0,0,4.3063,4.3063,0,4.3045,4.3045,4.3045,4.2991,4.299,4.2989,4.2988,4.2972,4.2972,4.2973,0,0,0,0,0,0,0,0,0,0,0,0,0,4.3054,4.3054,4.3063,4.3063,4.3063,4.3045,4.3045,4.3045,4.2991,4.299,4.2989,4.2987,4.2971,4.2972,4.2973,0,0,0,0,0,0,0,0,0,0,0,0,0,4.3049,4.3054,4.3063,4.3034,4.3031,4.3045,4.3045,4.3045,4.2992,4.299,4.2988,4.2987,4.2971,4.2972,4.2973,4.3015,0,0,4.2976,4.2977,0,0,0,0,0,0,0,0,4.3049,4.3049,4.3038,4.3036,4.3033,4.3019,4.3036,4.3035,4.2992,4.3007,4.2988,4.2986,4.2989,4.2988,4.2989,4.3014,4.3013,4.2976,4.2977,4.2977,4.2977,0,0,0,0,0,0,0,4.305,4.305,4.3056,4.3038,4.3035,4.3023,4.302,4.3035,4.3008,4.3005,4.3001,4.3,4.2987,4.2988,4.2988,4.3013,4.2976,4.2977,4.2978,4.2978,4.3072,4.3074,0,0,0,0,0,0,4.3054,4.305,4.3057,4.3056,4.3037,4.3024,4.3021,4.3025,4.3008,4.3003,4.3001,4.2998,4.2987,4.2987,4.2987,4.3035,4.2977,4.2978,4.2979,4.307,4.3073,4.3075,0,0,0,0,0,0,4.3054,4.3055,4.3057,4.3052,4.3051,4.3026,4.3031,4.3026,4.3026,4.3005,4.3,4.3007,4.2986,4.2986,4.3008,4.3033,4.2979,4.298,4.3068,4.3071,4.3074,4.313,0,0,0,0,0,0,4.3054,4.3055,4.307,4.3053,4.3052,4.3078,4.3032,4.3027,4.3028,4.3023,4.3009,4.3005,4.2984,4.3007,4.3009,4.3034,4.298,4.3066,4.3069,4.3073,4.3126,4.3135,4.3142,0,0,0,0,0,4.3054,4.3087,4.3071,4.3072,4.307,4.3079,4.3079,4.3054,4.303,4.3046,4.3032,4.3005,4.3031,4.301,4.3012,4.3037,4.3064,4.3068,4.3072,4.3123,4.3133,4.3142,0,0,0,0,0,0,4.3109,4.3084,4.3066,4.3095,4.309,4.307,4.3088,4.3066,4.3068,4.3063,4.3033,4.303,4.3057,4.3049,4.3026,4.3077,4.3043,4.3048,4.308,4.309,4.3098,4.3099,4.2981,0,0,0,0,0,4.3124,4.3133,4.3112,4.3139,4.3138,4.3114,4.3117,4.3098,4.3092,4.309,4.3077,4.3073,4.308,4.3085,4.309,4.3125,4.3122,4.3144,4.3152,4.3159,4.3163,4.3182,4.3191,4.3089,4.3089,4.3089,0,0,4.3156,4.3144,4.3152,4.315,4.3144,4.3155,4.3112,4.3126,4.3133,4.3092,4.3112,4.3103,4.3096,4.3125,4.3138,4.312,4.3191,4.3164,4.317,4.317,4.3187,4.3197,4.3205,4.3092,4.3091,4.3091,0,0,4.3219,4.3211,4.3233,4.3228,4.3219,4.3203,4.3209,4.3193,4.3185,4.3205,4.3174,4.3184,4.3196,4.3192,4.3192,4.3256,4.3232,4.3259,4.3301,4.3319,4.3327,4.3334,4.3357,4.3365,4.3264,4.3264,4.3264,0,4.326,4.3275,4.3248,4.3263,4.3263,4.3226,4.3249,4.3245,4.3239,4.324,4.3221,4.3236,4.3228,4.3256,4.3272,4.3273,4.3279,4.326,4.3328,4.3335,4.3341,4.3362,4.3371,4.3267,4.3267,4.3266,4.3266,0,4.3326,4.3336,4.3355,4.3349,4.3352,4.3371,4.3348,4.3354,4.3336,4.3322,4.3343,4.3333,4.3336,4.3342,4.3324,4.3367,4.3357,4.3333,4.3298,4.3354,4.3374,4.3382,4.3272,4.327,4.3269,4.3269,0,0,4.3422,4.3401,4.3408,4.3405,4.3393,4.3401,4.342,4.3421,4.3428,4.3425,4.3439,4.3451,4.343,4.343,4.3412,4.3428,4.3479,4.3402,4.3402,4.3416,4.3526,4.3543,4.3553,4.3464,4.3465,4.3466,4.3527,0,4.3481,4.3509,4.3486,4.3519,4.3529,4.3494,4.351,4.3505,4.3493,4.3501,4.3488,4.3497,4.3468,4.3468,4.3482,4.347,4.35,4.3465,4.3477,4.3477,4.3478,4.3563,4.3581,4.3638,4.3534,4.3535,4.3536,0,4.3554,4.3554,4.3588,4.3574,4.3577,4.3592,4.3592,4.3599,4.3593,4.3584,4.3585,4.3562,4.358,4.3547,4.357,4.3547,4.3551,4.3546,4.3547,4.3546,4.3509,4.3564,4.3656,4.3664,4.3548,4.3547,4.3546,0,4.362,4.3629,4.365,4.3649,4.3634,4.3645,4.3639,4.3631,4.3634,4.3635,4.3637,4.364,4.3642,4.3645,4.3625,4.3603,4.3652,4.3617,4.3644,4.3645,4.3655,4.3654,4.3748,4.3659,4.3659,4.3659,4.3659,0,4.3689,4.3711,4.368,4.3693,4.3717,4.369,4.3715,4.3706,4.3699,4.3711,4.3682,4.3693,4.3666,4.3675,4.366,4.3682,4.3683,4.3676,4.3672,4.3678,4.3679,4.3679,4.3674,4.3661,4.3661,4.366,4.366,0,4.3766,4.3746,4.3767,4.3751,4.3748,4.3766,4.3752,4.3764,4.3751,4.3766,4.3768,4.3748,4.3757,4.3737,4.3744,4.3734,4.3765,4.3755,4.3767,4.3763,4.3792,4.3789,4.3888,4.3899,4.3804,4.3805,4.3806,0,4.381,4.3826,4.3812,4.3817,4.3813,4.3822,4.3824,4.38,4.3804,4.3799,4.3812,4.3819,4.3822,4.3839,4.3825,4.383,4.3819,4.3854,4.382,4.3826,4.3819,4.3818,4.3819,4.386,4.3861,4.3862,4.3863,0,4.3891,4.3881,4.3885,4.3887,4.3891,4.3892,4.389,4.3896,4.3871,4.3877,4.3886,4.3889,4.3895,4.3902,4.3904,4.3899,4.3877,4.3874,4.3881,4.3887,4.3893,4.3889,4.3785,4.3872,4.3871,4.387,4.387,4.3869,4.3953,4.3965,4.3957,4.3964,4.396,4.3959,4.397,4.3958,4.3965,4.3967,4.3953,4.3965,4.396,4.396,4.3958,4.3967,4.3952,4.3961,4.3964,4.3966,4.397,4.3892,4.3968,4.3967,4.3967,4.3967,4.3967,0,4.4031,4.4025,4.4031,4.4029,4.4035,4.4014,4.4011,4.4017,4.4028,4.4024,4.4029,4.4039,4.4046,4.4034,4.4039,4.4049,4.4039,4.4051,4.4049,4.4048,4.3984,4.3978,4.4059,4.4059,4.4059,4.4059,4.4059,4.4059,4.4073,4.4093,4.4082,4.41,4.4094,4.4104,4.4105,4.4104,4.4101,4.4114,4.4119,4.4111,4.4104,4.4109,4.4115,4.4111,4.4114,4.4129,4.4122,4.4062,4.4053,4.4044,4.4038,4.413,4.4131,4.4185,4.4186,4.4186]},{"header":{"parameterUnit":"m.s-1","parameterCategory":1,"la1":30.2991,"la2":30.254,"lo1":-89.0895,"lo2":-89.0444,"dy":0.0017,"dx":0.0017,"nx":28,"ny":28,"refTime":"2023-06-19T21:00:00:Z","depth":0,"parameterNumber":3,"parameterNumberName":"V-component_of_WINDS"},"data":[0,0,0,0,0,0,0,0,0,0,0,0,0,0,0,0,0,0,0,0,0,0,0,0,0,0,0,0,0,0,0,0,0,0,0,0,0,0,0,0,0,0,0,0,0,0,0,0,0,0,0,0,0,0,0,0,0,0,3.8357,3.8357,0,3.8398,3.8398,3.8399,3.8393,3.8393,3.8392,3.8392,3.843,3.8431,3.8433,0,0,0,0,0,0,0,0,0,0,0,0,0,3.8271,3.8273,3.8357,3.8357,3.8358,3.8398,3.8398,3.8399,3.8394,3.8393,3.8392,3.8391,3.8429,3.8431,3.8433,0,0,0,0,0,0,0,0,0,0,0,0,0,3.831,3.8274,3.8357,3.836,3.8361,3.8398,3.8398,3.8399,3.8394,3.8393,3.8392,3.8391,3.8429,3.8431,3.8433,3.8468,0,0,3.8441,3.8442,0,0,0,0,0,0,0,0,3.8308,3.8313,3.8359,3.836,3.8361,3.839,3.8382,3.8422,3.8394,3.8381,3.8391,3.839,3.8417,3.842,3.843,3.847,3.8472,3.8441,3.8443,3.8444,3.8444,0,0,0,0,0,0,0,3.8305,3.8311,3.8373,3.836,3.8361,3.8359,3.8363,3.839,3.8404,3.8382,3.8382,3.8387,3.8417,3.8428,3.8431,3.8472,3.8441,3.8443,3.8445,3.8446,3.8543,3.8544,0,0,0,0,0,0,3.8302,3.8309,3.8372,3.8374,3.8332,3.8361,3.8366,3.8381,3.8404,3.8406,3.8388,3.8387,3.8424,3.8428,3.8432,3.8474,3.8444,3.8446,3.8447,3.8542,3.8543,3.8544,0,0,0,0,0,0,3.83,3.8308,3.837,3.8342,3.8349,3.8364,3.8381,3.8383,3.8393,3.8408,3.841,3.8396,3.8423,3.8429,3.846,3.8476,3.8447,3.8449,3.854,3.8542,3.8544,3.8559,0,0,0,0,0,0,3.8298,3.8307,3.8321,3.8342,3.8351,3.8398,3.8382,3.8384,3.8398,3.8397,3.8416,3.8419,3.8423,3.8456,3.8462,3.8479,3.8451,3.8539,3.8541,3.8543,3.8557,3.8561,3.8565,0,0,0,0,0,3.8295,3.8323,3.8322,3.8329,3.8369,3.8399,3.8404,3.8409,3.8399,3.8413,3.8423,3.8418,3.8473,3.8459,3.8466,3.8483,3.8538,3.8541,3.8543,3.8556,3.8561,3.8565,0,0,0,0,0,0,3.8302,3.8326,3.8325,3.8361,3.8378,3.8398,3.8415,3.8414,3.8433,3.8431,3.8436,3.8441,3.8472,3.8481,3.8465,3.8518,3.8504,3.8508,3.8511,3.8516,3.852,3.8517,3.8453,0,0,0,0,0,3.8308,3.8331,3.835,3.838,3.8389,3.8401,3.8414,3.8417,3.8434,3.8441,3.8453,3.8469,3.849,3.8504,3.8524,3.8559,3.8563,3.8574,3.8578,3.8581,3.8584,3.8603,3.8609,3.8553,3.8553,3.8553,0,0,3.832,3.8336,3.835,3.8382,3.8396,3.8419,3.8407,3.8431,3.8448,3.8444,3.8474,3.8484,3.8502,3.8535,3.8551,3.8544,3.8601,3.8584,3.8586,3.8588,3.8606,3.8612,3.8616,3.8554,3.8554,3.8554,0,0,3.8354,3.8369,3.8395,3.841,3.8431,3.8439,3.8445,3.8466,3.8472,3.8503,3.8501,3.852,3.8556,3.857,3.8581,3.8621,3.8618,3.8627,3.8646,3.8665,3.8669,3.8673,3.8687,3.8692,3.8631,3.8631,3.8631,0,3.8366,3.8402,3.8409,3.8434,3.8448,3.8447,3.8474,3.8487,3.8513,3.8523,3.8515,3.8561,3.8573,3.861,3.862,3.8629,3.8636,3.8625,3.8668,3.8672,3.8676,3.869,3.8695,3.8632,3.8632,3.8632,3.8631,0,3.8415,3.844,3.8459,3.8486,3.8502,3.8528,3.8538,3.8553,3.8555,3.8564,3.8595,3.861,3.8633,3.8642,3.8643,3.8679,3.8674,3.8667,3.8653,3.8682,3.8695,3.87,3.8633,3.8633,3.8633,3.8632,0,0,3.8453,3.8486,3.8492,3.8505,3.8529,3.8547,3.8573,3.8597,3.861,3.8629,3.865,3.8681,3.8675,3.8688,3.8691,3.8708,3.8739,3.8699,3.87,3.8706,3.8779,3.8783,3.8789,3.8737,3.8738,3.8739,3.8777,0,3.8489,3.8536,3.8544,3.8585,3.8607,3.8608,3.863,3.8647,3.8655,3.8675,3.8684,3.8706,3.8697,3.8705,3.8722,3.8732,3.8753,3.8729,3.8756,3.8757,3.8751,3.8796,3.8801,3.8836,3.8782,3.8783,3.8784,0,3.8537,3.8559,3.8602,3.8624,3.8634,3.8654,3.8677,3.8696,3.8715,3.872,3.8736,3.8737,3.8763,3.8748,3.8784,3.8767,3.8778,3.8785,3.8786,3.8789,3.8772,3.8799,3.8848,3.8853,3.8792,3.8791,3.879,0,3.8561,3.86,3.8632,3.8642,3.8668,3.8683,3.8694,3.8712,3.8726,3.8746,3.8755,3.8777,3.8789,3.8806,3.8813,3.8802,3.8848,3.8834,3.8853,3.8853,3.8862,3.8861,3.8913,3.887,3.887,3.887,3.887,0,3.86,3.8626,3.8643,3.8662,3.8691,3.87,3.8728,3.8739,3.8755,3.8776,3.8777,3.8796,3.8804,3.8825,3.883,3.8859,3.8864,3.8868,3.887,3.8868,3.8868,3.8875,3.8873,3.8871,3.8871,3.8871,3.887,0,3.863,3.8642,3.8677,3.8699,3.8706,3.8726,3.8745,3.8763,3.8773,3.8799,3.8805,3.8819,3.8843,3.8852,3.8881,3.8885,3.8918,3.8917,3.8912,3.8912,3.893,3.8928,3.8988,3.8996,3.8948,3.8949,3.8949,0,3.8654,3.8675,3.87,3.8715,3.8727,3.8751,3.8766,3.8775,3.879,3.8814,3.8829,3.8854,3.8873,3.8912,3.8924,3.8946,3.8945,3.8965,3.8948,3.8947,3.8945,3.8944,3.8946,3.8967,3.8968,3.8968,3.8969,0,3.8695,3.8701,3.8723,3.8748,3.8766,3.8786,3.8805,3.8817,3.8828,3.8846,3.8871,3.8887,3.8917,3.8941,3.8964,3.8974,3.8974,3.8974,3.898,3.8978,3.8974,3.8977,3.892,3.8972,3.8972,3.8972,3.8972,3.8971,3.8723,3.8742,3.8763,3.8788,3.8804,3.8822,3.884,3.8853,3.8874,3.8901,3.8904,3.8932,3.895,3.8981,3.8993,3.9014,3.9009,3.9016,3.9018,3.902,3.9022,3.8972,3.9018,3.9018,3.9018,3.9018,3.9018,0,3.8764,3.8778,3.8801,3.8829,3.8848,3.8848,3.8869,3.8885,3.8909,3.8928,3.8948,3.8977,3.9001,3.9015,3.9039,3.9053,3.9053,3.9058,3.9057,3.906,3.9025,3.9018,3.9058,3.9058,3.9058,3.9058,3.9058,3.9058,3.8787,3.8819,3.8827,3.8867,3.888,3.8908,3.892,3.8937,3.8951,3.8985,3.9005,3.9015,3.9031,3.9056,3.9078,3.9082,3.909,3.9096,3.9099,3.9066,3.9062,3.9058,3.9052,3.9098,3.9098,3.9132,3.9133,3.9133]}]]